This is the latest recevied weather packets stored in our database for station/object YD2CLX-11. If no packets are shown the sender has not sent any weather packets the latest 10 day(s).
| Time | Temp. | Humidity | Pressure | Rain* | Wind** | Luminosity | Snow |
|---|---|---|---|---|---|---|---|
| 1777925463 | 21.11° C | 80% | 889.8 hPa | - | - | - | - |
| 1777924863 | 20.56° C | 80% | 889.7 hPa | - | - | - | - |
| 1777924263 | 20.56° C | 80% | 890 hPa | - | - | - | - |
| 1777923663 | 20.56° C | 81% | 889.9 hPa | - | - | - | - |
| 1777923063 | 21.11° C | 79% | 890 hPa | - | - | - | - |
| 1777922463 | 21.11° C | 80% | 889.9 hPa | - | - | - | - |
| 1777921863 | 21.11° C | 80% | 890 hPa | - | - | - | - |
| 1777921263 | 21.11° C | 80% | 890 hPa | - | - | - | - |
| 1777920663 | 21.11° C | 80% | 890 hPa | - | - | - | - |
| 1777920062 | 21.11° C | 80% | 890.1 hPa | - | - | - | - |
| 1777919462 | 21.11° C | 79% | 890.2 hPa | - | - | - | - |
| 1777918862 | 21.67° C | 80% | 890.3 hPa | - | - | - | - |
| 1777918262 | 21.11° C | 80% | 890.4 hPa | - | - | - | - |
| 1777917662 | 21.67° C | 80% | 890.5 hPa | - | - | - | - |
| 1777917062 | 21.67° C | 80% | 890.6 hPa | - | - | - | - |
| 1777916462 | 21.67° C | 81% | 890.8 hPa | - | - | - | - |
| 1777915864 | 21.67° C | 80% | 890.9 hPa | - | - | - | - |
| 1777915262 | 21.67° C | 81% | 891 hPa | - | - | - | - |
| 1777914662 | 21.67° C | 81% | 891.3 hPa | - | - | - | - |
| 1777914062 | 21.67° C | 80% | 891.3 hPa | - | - | - | - |
| 1777913463 | 22.22° C | 80% | 891.3 hPa | - | - | - | - |
| 1777912861 | 21.67° C | 81% | 891.4 hPa | - | - | - | - |
| 1777912261 | 21.67° C | 80% | 891.6 hPa | - | - | - | - |
| 1777911661 | 22.22° C | 80% | 891.6 hPa | - | - | - | - |
| 1777911061 | 22.22° C | 80% | 891.9 hPa | - | - | - | - |
* Rain since midnight (hover to see other rain measurements)
** Current wind speed in m/s (hover to see current wind gust speed)